Time,TemperatureF,DewpointF,PressureIn,WindDirection,WindDirectionDegrees,WindSpeedMPH,WindSpeedGustMPH,Humidity,HourlyPrecipIn,Conditions,Clouds,dailyrainin,SoftwareType,DateUTC
2015-08-28 00:04:00,72.7,50.1,29.98,NW,315,0.0,0.0,45,0.00,,,0.00,WUHU216HW,2015-08-28 07:04:00,
2015-08-28 00:09:00,72.4,49.7,29.98,NW,315,0.0,0.0,45,0.00,,,0.00,WUHU216HW,2015-08-28 07:09:00,
2015-08-28 00:14:00,72.4,49.2,29.98,South,180,0.0,0.2,44,0.00,,,0.00,WUHU216HW,2015-08-28 07:14:00,
2015-08-28 00:19:00,72.4,47.9,29.98,ESE,113,0.2,0.9,42,0.00,,,0.00,WUHU216HW,2015-08-28 07:19:00,
2015-08-28 00:24:00,72.4,47.4,29.98,ENE,68,0.0,0.9,41,0.00,,,0.00,WUHU216HW,2015-08-28 07:24:00,
2015-08-28 00:29:00,72.4,47.4,29.98,ENE,68,0.0,0.4,41,0.00,,,0.00,WUHU216HW,2015-08-28 07:29:00,
2015-08-28 00:34:00,72.5,47.5,29.98,ENE,68,0.0,0.4,41,0.00,,,0.00,WUHU216HW,2015-08-28 07:34:00,
2015-08-28 00:39:00,72.4,46.7,29.98,SE,135,0.2,0.4,40,0.00,,,0.00,WUHU216HW,2015-08-28 07:39:00,
2015-08-28 00:44:00,72.2,46.5,29.98,SE,135,0.0,0.4,40,0.00,,,0.00,WUHU216HW,2015-08-28 07:44:00,
2015-08-28 00:49:00,72.0,46.5,29.98,East,90,0.9,0.9,40,0.00,,,0.00,WUHU216HW,2015-08-28 07:49:00,
2015-08-28 00:54:00,71.8,45.6,29.98,SE,135,0.4,1.6,39,0.00,,,0.00,WUHU216HW,2015-08-28 07:54:00,
2015-08-28 00:59:00,71.6,46.1,29.98,SE,135,0.0,1.6,40,0.00,,,0.00,WUHU216HW,2015-08-28 07:59:00,
2015-08-28 01:04:00,71.5,45.9,29.98,SE,135,0.0,1.1,40,0.00,,,0.00,WUHU216HW,2015-08-28 08:04:00,
2015-08-28 01:09:00,71.3,46.4,29.98,SE,135,0.0,1.1,41,0.00,,,0.00,WUHU216HW,2015-08-28 08:09:00,
2015-08-28 01:14:00,71.3,46.4,29.98,SE,135,0.0,0.0,41,0.00,,,0.00,WUHU216HW,2015-08-28 08:14:00,
2015-08-28 01:19:00,71.3,46.4,29.98,SE,135,0.0,0.2,41,0.00,,,0.00,WUHU216HW,2015-08-28 08:19:00,
2015-08-28 01:24:00,71.1,46.2,29.98,SE,135,0.2,0.2,41,0.00,,,0.00,WUHU216HW,2015-08-28 08:24:00,
2015-08-28 01:29:00,71.1,46.2,29.99,SSE,158,0.2,0.2,41,0.00,,,0.00,WUHU216HW,2015-08-28 08:29:00,
2015-08-28 01:34:00,71.1,46.2,29.99,ENE,68,0.9,0.9,41,0.00,,,0.00,WUHU216HW,2015-08-28 08:34:00,
2015-08-28 01:39:00,71.1,46.2,29.98,SE,135,0.0,0.9,41,0.00,,,0.00,WUHU216HW,2015-08-28 08:39:00,
2015-08-28 01:44:00,71.1,46.2,29.98,SSE,158,0.0,0.9,41,0.00,,,0.00,WUHU216HW,2015-08-28 08:44:00,
2015-08-28 01:49:00,71.1,46.2,29.98,SSE,158,0.0,0.2,41,0.00,,,0.00,WUHU216HW,2015-08-28 08:49:00,
2015-08-28 01:54:00,70.9,45.5,29.98,SE,135,0.0,0.9,40,0.00,,,0.00,WUHU216HW,2015-08-28 08:54:00,
2015-08-28 01:59:00,70.9,46.0,29.99,SE,135,0.0,0.9,41,0.00,,,0.00,WUHU216HW,2015-08-28 08:59:00,
2015-08-28 02:04:00,70.7,45.9,29.99,SE,135,0.0,0.4,41,0.00,,,0.00,WUHU216HW,2015-08-28 09:04:00,
2015-08-28 02:09:00,70.6,45.7,29.99,SE,135,0.0,0.0,41,0.00,,,0.00,WUHU216HW,2015-08-28 09:09:00,
2015-08-28 02:14:00,70.6,45.7,29.99,SE,135,0.0,0.0,41,0.00,,,0.00,WUHU216HW,2015-08-28 09:14:00,
2015-08-28 02:19:00,70.4,46.2,29.99,SE,135,0.0,0.0,42,0.00,,,0.00,WUHU216HW,2015-08-28 09:19:00,
2015-08-28 02:24:00,70.4,46.2,30.00,SE,135,0.0,0.0,42,0.00,,,0.00,WUHU216HW,2015-08-28 09:24:00,
2015-08-28 02:29:00,70.4,46.2,30.00,SE,135,0.4,0.4,42,0.00,,,0.00,WUHU216HW,2015-08-28 09:29:00,
2015-08-28 02:34:00,70.2,46.5,30.00,SSE,158,0.0,0.4,43,0.00,,,0.00,WUHU216HW,2015-08-28 09:34:00,
2015-08-28 02:39:00,70.2,46.5,30.00,SE,135,0.0,0.4,43,0.00,,,0.00,WUHU216HW,2015-08-28 09:39:00,
2015-08-28 02:44:00,70.2,47.2,30.01,SE,135,0.0,0.4,44,0.00,,,0.00,WUHU216HW,2015-08-28 09:44:00,
2015-08-28 02:49:00,70.2,47.2,30.01,SE,135,0.0,0.4,44,0.00,,,0.00,WUHU216HW,2015-08-28 09:49:00,
2015-08-28 02:54:00,70.2,47.8,30.01,NNW,338,1.6,1.6,45,0.00,,,0.00,WUHU216HW,2015-08-28 09:54:00,
2015-08-28 02:59:00,70.2,47.2,30.01,North,0,0.0,1.6,44,0.00,,,0.00,WUHU216HW,2015-08-28 09:59:00,
2015-08-28 03:04:00,70.2,47.2,30.01,East,90,0.0,0.4,44,0.00,,,0.00,WUHU216HW,2015-08-28 10:04:00,
2015-08-28 03:09:00,70.2,47.2,30.01,East,90,0.4,0.4,44,0.00,,,0.00,WUHU216HW,2015-08-28 10:09:00,
2015-08-28 03:14:00,70.2,47.8,30.00,SSE,158,0.0,0.7,45,0.00,,,0.00,WUHU216HW,2015-08-28 10:14:00,
2015-08-28 03:19:00,70.0,47.6,30.00,SSE,158,0.0,0.7,45,0.00,,,0.00,WUHU216HW,2015-08-28 10:19:00,
2015-08-28 03:24:00,70.0,48.2,30.00,North,0,0.0,0.0,46,0.00,,,0.00,WUHU216HW,2015-08-28 10:24:00,
2015-08-28 03:29:00,69.8,48.1,30.00,North,0,0.4,1.1,46,0.00,,,0.00,WUHU216HW,2015-08-28 10:29:00,
2015-08-28 03:34:00,69.8,48.1,29.99,NNE,23,0.4,1.1,46,0.00,,,0.00,WUHU216HW,2015-08-28 10:34:00,
2015-08-28 03:39:00,69.7,47.9,30.00,North,0,0.0,0.4,46,0.00,,,0.00,WUHU216HW,2015-08-28 10:39:00,
2015-08-28 03:44:00,69.7,48.4,30.00,NNE,23,0.4,0.4,47,0.00,,,0.00,WUHU216HW,2015-08-28 10:44:00,
2015-08-28 03:49:00,69.5,48.3,29.99,NNE,23,0.0,0.4,47,0.00,,,0.00,WUHU216HW,2015-08-28 10:49:00,
2015-08-28 03:54:00,69.5,48.3,29.99,NNE,23,0.0,0.4,47,0.00,,,0.00,WUHU216HW,2015-08-28 10:54:00,
2015-08-28 03:59:00,69.5,48.3,29.99,NNE,23,0.0,0.0,47,0.00,,,0.00,WUHU216HW,2015-08-28 10:59:00,
2015-08-28 04:04:00,69.3,48.7,29.99,NNE,23,0.0,0.0,48,0.00,,,0.00,WUHU216HW,2015-08-28 11:04:00,
2015-08-28 04:09:00,69.3,49.3,29.99,NNE,23,0.0,0.0,49,0.00,,,0.00,WUHU216HW,2015-08-28 11:09:00,
2015-08-28 04:14:00,69.1,49.8,30.00,ESE,113,0.0,0.0,50,0.00,,,0.00,WUHU216HW,2015-08-28 11:14:00,
2015-08-28 04:19:00,69.1,49.8,29.99,ESE,113,0.0,0.0,50,0.00,,,0.00,WUHU216HW,2015-08-28 11:19:00,
2015-08-28 04:24:00,69.1,49.8,30.00,ESE,113,0.0,0.2,50,0.00,,,0.00,WUHU216HW,2015-08-28 11:24:00,
2015-08-28 04:29:00,68.8,50.4,29.99,North,0,0.0,0.9,52,0.00,,,0.00,WUHU216HW,2015-08-28 11:29:00,
2015-08-28 04:34:00,68.8,51.0,30.00,North,0,0.0,0.9,53,0.00,,,0.00,WUHU216HW,2015-08-28 11:34:00,
2015-08-28 04:39:00,68.6,51.2,30.00,North,0,0.0,0.0,54,0.00,,,0.00,WUHU216HW,2015-08-28 11:39:00,
2015-08-28 04:44:00,68.2,51.8,30.00,North,0,0.0,0.0,56,0.00,,,0.00,WUHU216HW,2015-08-28 11:44:00,
2015-08-28 04:49:00,68.0,52.2,29.99,North,0,0.0,0.0,57,0.00,,,0.00,WUHU216HW,2015-08-28 11:49:00,
2015-08-28 04:54:00,67.7,52.4,29.99,North,0,0.0,0.0,58,0.00,,,0.00,WUHU216HW,2015-08-28 11:54:00,
2015-08-28 04:59:00,67.5,52.7,29.99,North,0,0.0,0.0,59,0.00,,,0.00,WUHU216HW,2015-08-28 11:59:00,
2015-08-28 05:04:00,67.1,52.4,29.99,North,0,0.0,0.0,59,0.00,,,0.00,WUHU216HW,2015-08-28 12:04:00,
2015-08-28 05:09:00,67.0,53.1,29.99,North,0,0.0,0.0,61,0.00,,,0.00,WUHU216HW,2015-08-28 12:09:00,
2015-08-28 05:14:00,66.6,53.2,29.99,North,0,0.0,0.0,62,0.00,,,0.00,WUHU216HW,2015-08-28 12:14:00,
2015-08-28 05:19:00,66.4,53.0,29.98,North,0,0.0,1.1,62,0.00,,,0.00,WUHU216HW,2015-08-28 12:19:00,
2015-08-28 05:24:00,66.6,53.7,29.98,North,0,0.0,1.1,63,0.00,,,0.00,WUHU216HW,2015-08-28 12:24:00,
2015-08-28 05:29:00,66.4,53.5,29.99,North,0,0.0,0.0,63,0.00,,,0.00,WUHU216HW,2015-08-28 12:29:00,
2015-08-28 05:34:00,66.4,53.8,29.99,North,0,0.0,0.0,64,0.00,,,0.00,WUHU216HW,2015-08-28 12:34:00,
2015-08-28 05:39:00,66.4,53.8,29.99,North,0,0.0,0.0,64,0.00,,,0.00,WUHU216HW,2015-08-28 12:39:00,
2015-08-28 05:44:00,66.2,54.1,29.99,North,0,0.0,1.1,65,0.00,,,0.00,WUHU216HW,2015-08-28 12:44:00,
2015-08-28 05:49:00,66.1,53.9,29.99,North,0,0.0,1.1,65,0.00,,,0.00,WUHU216HW,2015-08-28 12:49:00,
2015-08-28 05:54:00,66.1,53.9,29.99,North,0,0.0,0.0,65,0.00,,,0.00,WUHU216HW,2015-08-28 12:54:00,
2015-08-28 05:59:00,65.9,54.2,29.99,North,0,0.0,0.4,66,0.00,,,0.00,WUHU216HW,2015-08-28 12:59:00,
2015-08-28 06:04:00,65.9,54.2,29.99,North,0,0.0,0.4,66,0.00,,,0.00,WUHU216HW,2015-08-28 13:04:00,
2015-08-28 06:09:00,65.5,54.3,29.99,North,0,0.0,0.2,67,0.00,,,0.00,WUHU216HW,2015-08-28 13:09:00,
2015-08-28 06:14:00,65.3,54.1,29.99,North,0,0.0,0.2,67,0.00,,,0.00,WUHU216HW,2015-08-28 13:14:00,
2015-08-28 06:19:00,65.2,54.4,29.99,North,0,0.0,0.0,68,0.00,,,0.00,WUHU216HW,2015-08-28 13:19:00,
2015-08-28 06:24:00,65.2,54.4,29.99,North,0,0.0,0.0,68,0.00,,,0.00,WUHU216HW,2015-08-28 13:24:00,
2015-08-28 06:29:00,65.2,54.4,29.99,North,0,0.0,0.0,68,0.00,,,0.00,WUHU216HW,2015-08-28 13:29:00,
2015-08-28 06:34:00,65.2,54.7,29.99,North,0,0.0,0.0,69,0.00,,,0.00,WUHU216HW,2015-08-28 13:34:00,
2015-08-28 06:39:00,65.0,55.0,29.99,ENE,68,0.0,0.4,70,0.00,,,0.00,WUHU216HW,2015-08-28 13:39:00,
2015-08-28 06:44:00,65.2,55.2,29.99,ENE,68,0.0,0.4,70,0.00,,,0.00,WUHU216HW,2015-08-28 13:44:00,
2015-08-28 06:49:00,65.2,55.2,29.99,ENE,68,0.0,0.0,70,0.00,,,0.00,WUHU216HW,2015-08-28 13:49:00,
2015-08-28 06:54:00,65.2,55.2,29.99,ENE,68,0.0,0.0,70,0.00,,,0.00,WUHU216HW,2015-08-28 13:54:00,
2015-08-28 06:59:00,65.0,55.0,29.99,ENE,68,0.0,0.0,70,0.00,,,0.00,WUHU216HW,2015-08-28 13:59:00,
2015-08-28 07:04:00,65.0,55.0,29.98,ENE,68,0.2,0.2,70,0.00,,,0.00,WUHU216HW,2015-08-28 14:04:00,
2015-08-28 07:09:00,64.8,54.9,29.98,ENE,68,0.0,0.2,70,0.00,,,0.00,WUHU216HW,2015-08-28 14:09:00,
2015-08-28 07:14:00,64.6,54.7,29.98,ENE,68,0.0,0.0,70,0.00,,,0.00,WUHU216HW,2015-08-28 14:14:00,